User: anonymous   Login
Location: Valley View Observatory
(41.0081°N, 76.5874°W)
Time: 18:18:44
(UTC-04:00)
Language:

Cosmos 2237 Rocket - Orbit

View from above orbital plane
View from above orbital plane
View from above satellite
View from above satellite

Ground track
Ground track

The orbit data is extracted from the following two-line orbital elements,

1 22566U 93016B   16274.96704410 +.00000264 +00000-0 +16091-3 0  9993
2 22566 071.0065 251.0366 0010111 180.5781 179.5331 14.14939009214599
Epoch (UTC): 30 September 2016 23:12:32
Eccentricity: 0.0010111
inclination: 71.0065°
perigee height: 835 km
apogee height: 850 km
right ascension of ascending node: 251.0366°
argument of perigee: 180.5781°
revolutions per day: 14.14939009
mean anomaly at epoch: 179.5331°
orbit number at epoch: 21459

The dashed part of the orbit path shows where the satellite is in the earth's shadow,  

DLR